STARLINK-11555, 62915

Orbit data source: Space-Track

STARLINK-11555, 62915 is a payload satellite owned by SpaceX/Seattle (US) in LEO that was launched on Sat, 08 Feb 2025 UTC via an FALCON 9 launch vehicle from the Air Force Eastern Test Range (AFETR). Payload-class satellites include a variety of spacecraft equipped with specific instruments for various scientific and technological missions. These include communications satellites like Starlink; space stations such as the ISS; scientific satellites like the Hubble; Earth observation satellites from companies like Planet Labs, Umbra, and HawkEye 360; GPS; miniature CubeSats for education and research; and military/defense satellites.

Loading next visibility...
Identifier
62915, 2025-027J
Orbit
LEO
Country
Flag of USUS
Related business
Manufacturer
SpaceX/Seattle
Mission
Operational Commercial Communications
Bus & Motor
STARLINK V2MD, Unknown motor
Mass
960 kg wet, ~910 kg dry
Launch date (UTC)
2025-02-08 (7 months ago)
Launch vehicle
FALCON 9
Launch site
Air Force Eastern Test Range (AFETR)
Object type
Payload
Rocket body
Debris
Shape & HBR
Box + 2 Pan, 14.5 m
Radar Cross Section
36.964 m², Large (>1 m²)

Expand to show TLE details & history
Last TLE update: 14 hours ago

TLE from 14 hours ago
0 STARLINK-11555
1 62915U 25027J   25260.20034893  .00239779  00000-0  18122-2 0  9996
2 62915  42.9992 313.6785 0002096 258.2167 101.8466 15.70925435 35905
Epoch: 2025-09-17T04:48Z
TLE epoch observation values (Epoch: 2025-09-17T04:48:30.147Z)
Latitude
0.00001°
Longitude
-114.82682°
Altitude
356.312 km
Speed
7.697 km/s
True Right ascension
20h 54m 42s
True Declination
0° 00' 00"
Sunlit
Object was in full shadow at epoch
Visualization orbit readout
Latitude
Unknown
Longitude
Unknown
Altitude
Unknown
Speed
Unknown
Apparent Right ascension
Unknown
Apparent Declination
Unknown
Sunlit
N/A
Visualization observer readout
Local Sidereal Time
11:18:52
Azimuth
Unknown
Elevation
Unknown
Doppler factor
Unknown
Orbital elements
Apogee altitude
359.645 km
Perigee altitude
356.821 km
Semi-major axis
6,736.37 km
Eccentricity
0.00021
Inclination
42.9992°
RAAN
313.6785°
Arg. of periapsis
258.2167°
True anomaly
101.87011°
Mean anomaly
101.8466°
Eccentric anomaly
101.85835°
Mean motion
3.92558 °/min
Orbital period
91.71 mins
BSTAR
0.0018122
Loading maneuver chart data...
Computing Atmospheric mass density...
Loading historical data...
Loading historical data...
Loading historical data...
Loading historical data...
Loading historical data...
Loading historical data...
Loading historical data...

Documentation

Showing up to 5 results
|